This is the latest recevied weather packets stored in our database for station/object K3MV-13. If no packets are shown the sender has not sent any weather packets the latest 10 day(s).
| Time | Temp. | Humidity | Pressure | Rain* | Wind** | Luminosity | Snow |
|---|---|---|---|---|---|---|---|
| 1777771341 | 2.78° C | 76% | 1015.1 hPa | 0 mm | - | 0 W/m² | - |
| 1777771038 | 2.78° C | 76% | 1015 hPa | 0 mm | - | 0 W/m² | - |
| 1777770735 | 2.78° C | 76% | 1014.9 hPa | 0 mm | - | 0 W/m² | - |
| 1777770430 | 3.33° C | 75% | 1015 hPa | 0 mm | - | 0 W/m² | - |
| 1777770128 | 3.33° C | 75% | 1015.1 hPa | 0 mm | - | 0 W/m² | - |
| 1777769825 | 3.33° C | 74% | 1014.7 hPa | 0 mm | - | 0 W/m² | - |
| 1777769522 | 3.33° C | 75% | 1014.8 hPa | 0 mm | - | 0 W/m² | - |
| 1777769218 | 3.33° C | 75% | 1014.7 hPa | 0 mm | - | 0 W/m² | - |
| 1777768917 | 3.33° C | 76% | 1014.7 hPa | 0 mm | - | 0 W/m² | - |
| 1777768614 | 3.33° C | 76% | 1014.6 hPa | 0 mm | - | 0 W/m² | - |
| 1777768311 | 3.33° C | 75% | 1014.4 hPa | 0 mm | - | 0 W/m² | - |
| 1777768007 | 3.33° C | 75% | 1014.6 hPa | 0 mm | - | 0 W/m² | - |
| 1777767704 | 3.33° C | 75% | 1014.4 hPa | 0 mm | - | 1 W/m² | - |
| 1777767400 | 3.89° C | 74% | 1014.4 hPa | 0 mm | - | 1 W/m² | - |
| 1777767097 | 3.89° C | 75% | 1014.3 hPa | 0 mm | - | 2 W/m² | - |
| 1777766795 | 3.89° C | 74% | 1014.3 hPa | 0 mm | - | 3 W/m² | - |
| 1777766492 | 3.89° C | 73% | 1014.4 hPa | 0 mm | - | 5 W/m² | - |
| 1777766188 | 3.89° C | 73% | 1014.3 hPa | 0 mm | - | 8 W/m² | - |
| 1777765887 | 3.89° C | 72% | 1014.4 hPa | 0 mm | - | 12 W/m² | - |
| 1777765582 | 3.89° C | 71% | 1014.3 hPa | 0 mm | - | 14 W/m² | - |
| 1777765280 | 3.89° C | 71% | 1014.3 hPa | 0 mm | - | 18 W/m² | - |
| 1777764975 | 3.89° C | 70% | 1014.1 hPa | 0 mm | - | 19 W/m² | - |
| 1777764673 | 4.44° C | 69% | 1014.1 hPa | 0 mm | - | 22 W/m² | - |
| 1777764368 | 4.44° C | 69% | 1014.1 hPa | 0 mm | - | 27 W/m² | - |
| 1777764066 | 4.44° C | 68% | 1014.1 hPa | 0 mm | - | 34 W/m² | - |
* Rain latest hour (hover to see other rain measurements)
** Current wind speed in m/s (hover to see current wind gust speed)